TimeMDT,TemperatureF,Dew PointF,Humidity,Sea Level PressureIn,VisibilityMPH,Wind Direction,Wind SpeedMPH,Gust SpeedMPH,PrecipitationIn,Events,Conditions,WindDirDegrees,DateUTC
12:53 AM,75.0,55.9,51,29.91,10.0,ESE,3.5,-,N/A,,Partly Cloudy,110,2013-09-07 06:53:00
1:53 AM,72.0,55.9,57,29.94,10.0,SW,9.2,-,N/A,,Scattered Clouds,230,2013-09-07 07:53:00
2:53 AM,68.0,57.9,70,29.92,10.0,NW,8.1,-,N/A,,Scattered Clouds,310,2013-09-07 08:53:00
3:53 AM,66.9,57.0,70,29.94,10.0,NW,8.1,-,N/A,,Scattered Clouds,320,2013-09-07 09:53:00
4:53 AM,70.0,57.0,63,29.96,10.0,North,3.5,-,N/A,,Scattered Clouds,360,2013-09-07 10:53:00
5:53 AM,66.9,57.9,73,29.96,10.0,WNW,6.9,-,N/A,,Mostly Cloudy,300,2013-09-07 11:53:00
6:53 AM,66.9,57.9,73,29.98,10.0,Calm,Calm,-,N/A,,Mostly Cloudy,0,2013-09-07 12:53:00
7:53 AM,64.9,57.9,78,30.00,10.0,NNE,3.5,-,N/A,,Scattered Clouds,20,2013-09-07 13:53:00
8:53 AM,66.9,57.9,73,30.00,10.0,SSW,4.6,-,N/A,,Scattered Clouds,210,2013-09-07 14:53:00
9:53 AM,70.0,60.1,71,30.00,10.0,South,4.6,-,N/A,,Scattered Clouds,170,2013-09-07 15:53:00
10:53 AM,73.9,60.1,62,29.99,10.0,Variable,5.8,-,N/A,,Partly Cloudy,0,2013-09-07 16:53:00
11:53 AM,77.0,59.0,54,29.99,10.0,SW,5.8,-,N/A,,Partly Cloudy,220,2013-09-07 17:53:00
12:53 PM,80.1,57.9,47,29.97,10.0,Variable,4.6,-,N/A,,Partly Cloudy,0,2013-09-07 18:53:00
1:53 PM,84.9,57.9,40,29.95,10.0,East,4.6,-,N/A,,Partly Cloudy,80,2013-09-07 19:53:00
2:53 PM,84.9,55.9,37,29.93,10.0,ENE,10.4,-,N/A,,Partly Cloudy,60,2013-09-07 20:53:00
3:53 PM,86.0,53.1,32,29.92,10.0,ENE,6.9,-,N/A,,Partly Cloudy,70,2013-09-07 21:53:00
4:53 PM,87.1,50.0,28,29.90,10.0,NE,10.4,-,N/A,,Partly Cloudy,40,2013-09-07 22:53:00
5:53 PM,84.0,60.1,44,29.89,10.0,ENE,18.4,-,N/A,,Partly Cloudy,60,2013-09-07 23:53:00
6:53 PM,78.1,61.0,56,29.90,10.0,NE,19.6,27.6,N/A,,Partly Cloudy,50,2013-09-08 00:53:00
7:53 PM,73.0,61.0,66,29.94,10.0,North,19.6,-,N/A,,Partly Cloudy,10,2013-09-08 01:53:00
8:34 PM,71.1,61.0,70,30.01,10.0,NE,19.6,-,N/A,Thunderstorm,Thunderstorm,40,2013-09-08 02:34:00
8:53 PM,71.1,61.0,70,29.99,10.0,WSW,11.5,-,N/A,Thunderstorm,Thunderstorm,250,2013-09-08 02:53:00
9:03 PM,62.1,57.0,84,30.06,5.0,West,48.3,65.6,0.00,Rain-Thunderstorm,Light Thunderstorms and Rain,280,2013-09-08 03:03:00
9:05 PM,61.0,57.0,87,30.08,0.5,West,57.5,72.5,0.00,Fog-Rain-Thunderstorm,Heavy Thunderstorms and Rain,280,2013-09-08 03:05:00
9:08 PM,-9999,-9999,N/A,-9999,0.2,North,-9999.0,-,N/A,,Unknown,0,2013-09-08 03:08:00
9:16 PM,52.0,51.1,97,30.10,0.2,North,29.9,70.2,0.53,Rain-Hail-Thunderstorm,Heavy Thunderstorms and Rain,10,2013-09-08 03:16:00
9:24 PM,53.1,52.0,96,30.07,5.0,NE,16.1,36.8,1.31,Rain-Thunderstorm,Thunderstorms and Rain,40,2013-09-08 03:24:00
9:37 PM,55.9,55.9,100,30.07,10.0,NNE,15.0,25.3,1.31,Rain-Thunderstorm,Light Thunderstorms and Rain,30,2013-09-08 03:37:00
9:53 PM,55.0,55.0,100,30.01,10.0,NE,16.1,-,1.31,Thunderstorm,Thunderstorm,50,2013-09-08 03:53:00
10:11 PM,57.9,57.9,100,30.06,10.0,NNE,9.2,-,N/A,,Mostly Cloudy,30,2013-09-08 04:11:00
10:53 PM,59.0,57.9,96,29.99,10.0,East,4.6,-,N/A,,Scattered Clouds,90,2013-09-08 04:53:00
11:53 PM,59.0,55.9,90,30.01,10.0,WNW,10.4,-,N/A,,Partly Cloudy,300,2013-09-08 05:53:00